Location: Seattle
(47.6064°N, 122.3308°W)
Time: 14:28:24
(UTC-08:00)

Transit 2A Rocket - Visible Passes

Search period start: 25 November 2020 00:00
Search period end: 05 December 2020 00:00
Orbit: 588 x 914 km, 66.7° (Epoch: 25 November)

Date Brightness Start Highest point End Pass type
(mag) Time Alt. Az. Time Alt. Az. Time Alt. Az.
25 Nov 7.7 03:24:30 15° NE 03:24:30 15° NE 03:25:18 10° NE visible
25 Nov 6.6 05:04:25 22° NNW 05:04:25 22° NNW 05:07:23 10° NNE visible
25 Nov 7.1 06:46:37 10° NNW 06:47:35 10° NNW 06:48:32 10° N visible
26 Nov 7.0 04:23:14 19° N 04:23:14 19° N 04:24:59 10° NNE visible
26 Nov 7.0 06:03:08 12° NNW 06:04:19 12° NNW 06:06:30 10° N visible
27 Nov 7.6 03:42:00 13° NNE 03:42:00 13° NNE 03:42:33 10° NNE visible
27 Nov 7.0 05:21:54 15° NNW 05:21:54 15° NNW 05:24:16 10° N visible
28 Nov 7.2 04:40:38 15° N 04:40:38 15° N 04:41:58 10° NNE visible
29 Nov 7.6 03:59:19 11° NNE 03:59:19 11° NNE 03:59:37 10° NNE visible
29 Nov 7.2 05:39:14 11° NNW 05:39:31 11° NNW 05:40:51 10° N visible
30 Nov 7.3 04:57:54 12° N 04:57:54 12° N 04:58:46 10° N visible
02 Dec 7.2 06:58:23 10° N 06:59:55 11° NNE 07:01:25 10° NE visible
